This is the latest recevied weather packets stored in our database for station/object W5ALL-WX. If no packets are shown the sender has not sent any weather packets the latest 1 day(s).
| Time | Temp. | Humidity | Pressure | Rain* | Wind** | Luminosity | Snow |
|---|---|---|---|---|---|---|---|
| 1778060832 | 15.56° C | 42% | 1013.3 hPa | 0 mm | 1.79 m/s, 153° | - | - |
| 1778060532 | 15.56° C | 42% | 1013.2 hPa | 0 mm | 1.79 m/s, 166° | - | - |
| 1778060232 | 15° C | 42% | 1013.2 hPa | 0 mm | 1.79 m/s, 138° | - | - |
| 1778059932 | 15.56° C | 42% | 1013.2 hPa | 0 mm | 1.79 m/s, 166° | - | - |
| 1778059632 | 15.56° C | 41% | 1013.1 hPa | 0 mm | 0 m/s | - | - |
| 1778059332 | 15.56° C | 40% | 1013.1 hPa | 0 mm | 1.34 m/s, 179° | - | - |
| 1778059032 | 15.56° C | 40% | 1013.1 hPa | 0 mm | 0.89 m/s, 181° | - | - |
| 1778058732 | 15.56° C | 40% | 1013.1 hPa | 0 mm | 1.34 m/s, 166° | - | - |
| 1778058432 | 16.11° C | 39% | 1012.9 hPa | 0 mm | 0 m/s | - | - |
| 1778058132 | 16.11° C | 38% | 1012.9 hPa | 0 mm | 1.79 m/s, 184° | - | - |
| 1778057832 | 16.67° C | 38% | 1012.9 hPa | 0 mm | 2.24 m/s, 212° | - | - |
| 1778057532 | 16.67° C | 37% | 1012.8 hPa | 0 mm | 1.34 m/s, 169° | - | - |
| 1778057232 | 16.67° C | 37% | 1012.8 hPa | 0 mm | 2.24 m/s, 205° | - | - |
| 1778056932 | 16.67° C | 37% | 1012.8 hPa | 0 mm | 2.68 m/s, 177° | - | - |
| 1778056632 | 16.67° C | 37% | 1012.7 hPa | 0 mm | 3.13 m/s, 155° | - | - |
| 1778056332 | 16.11° C | 37% | 1012.7 hPa | 0 mm | 2.24 m/s, 204° | - | - |
| 1778056032 | 16.11° C | 38% | 1012.7 hPa | 0 mm | 1.79 m/s, 172° | - | - |
| 1778055732 | 16.11° C | 37% | 1012.7 hPa | 0 mm | 1.79 m/s, 176° | - | - |
| 1778055432 | 16.11° C | 37% | 1012.7 hPa | 0 mm | 2.24 m/s, 177° | - | - |
| 1778055132 | 16.11° C | 36% | 1012.7 hPa | 0 mm | 2.68 m/s, 152° | - | - |
| 1778054832 | 16.11° C | 36% | 1012.7 hPa | 0 mm | 2.68 m/s, 176° | - | - |
| 1778054532 | 16.11° C | 36% | 1012.7 hPa | 0 mm | 2.24 m/s, 200° | - | - |
| 1778054232 | 16.11° C | 36% | 1012.7 hPa | 0 mm | 0.45 m/s, 176° | - | - |
| 1778053932 | 16.11° C | 35% | 1012.7 hPa | 0 mm | 2.24 m/s, 173° | - | - |
| 1778053632 | 16.11° C | 35% | 1012.7 hPa | 0 mm | 2.24 m/s, 193° | - | - |
* Rain latest hour (hover to see other rain measurements)
** Current wind speed in m/s (hover to see current wind gust speed)